Tracking 29747 objects as of 10-Oct-2024
HD Live streaming from Space Station
objects crossing your sky now

STARLINK-2520

Track STARLINK-2520 now!
10-day predictions
STARLINK-2520 is classified as:


NORAD ID: 48281
Int'l Code: 2021-036F
Perigee: 553.4 km
Apogee: 555.3 km
Inclination: 53.1 °
Period: 95.6 minutes
Semi major axis: 6925 km
RCS: Unknown
Launch date: April 29, 2021
Source: United States (US)
Launch site: AIR FORCE EASTERN TEST RANGE (AFETR)
Your satellite tracking list
Your tracking list is empty




NASA's NSSDC Master Catalog

Two Line Element Set (TLE):
1 48281U 21036F   24283.59881724  .00014920  00000-0  10182-2 0  9998
2 48281  53.0525 233.4391 0001416  98.0746 262.0403 15.06406462190591
Source of the keplerian elements: AFSPC